This is the latest recevied weather packets stored in our database for station/object N5RPG. If no packets are shown the sender has not sent any weather packets the latest 10 day(s).
| Time | Temp. | Humidity | Pressure | Rain* | Wind** | Luminosity | Snow |
|---|---|---|---|---|---|---|---|
| 1778198796 | 20.56° C | 70% | 1016.4 hPa | 0 mm | - | 49 W/m² | - |
| 1778198494 | 20.56° C | 70% | 1016.6 hPa | 0 mm | - | 49 W/m² | - |
| 1778198190 | 20.56° C | 68% | 1016.3 hPa | 0 mm | - | 27 W/m² | - |
| 1778197888 | 20.56° C | 68% | 1016.4 hPa | 0 mm | - | 50 W/m² | - |
| 1778197584 | 20.56° C | 68% | 1016.3 hPa | 0 mm | - | 55 W/m² | - |
| 1778197280 | 20.56° C | 67% | 1016.7 hPa | 0 mm | - | 60 W/m² | - |
| 1778196978 | 21.11° C | 68% | 1016.6 hPa | 0 mm | - | 66 W/m² | - |
| 1778196676 | 20.56° C | 68% | 1016.4 hPa | 0 mm | - | 30 W/m² | - |
| 1778196372 | 20.56° C | 67% | 1016.1 hPa | 0 mm | - | 87 W/m² | - |
| 1778196070 | 21.11° C | 66% | 1016 hPa | 0 mm | - | 103 W/m² | - |
| 1778195766 | 21.11° C | 66% | 1016.3 hPa | 0 mm | - | 103 W/m² | - |
| 1778195463 | 21.11° C | 66% | 1016.4 hPa | 0 mm | - | 111 W/m² | - |
| 1778195159 | 21.11° C | 64% | 1016.4 hPa | 0 mm | - | 105 W/m² | - |
| 1778194856 | 21.11° C | 65% | 1016 hPa | 0 mm | - | 97 W/m² | - |
| 1778194551 | 21.11° C | 64% | 1016 hPa | 0 mm | - | 103 W/m² | - |
| 1778194248 | 21.11° C | 64% | 1016 hPa | 0 mm | - | 110 W/m² | - |
| 1778193944 | 21.67° C | 63% | 1016.3 hPa | 0 mm | - | 116 W/m² | - |
| 1778193640 | 21.67° C | 61% | 1016.5 hPa | 0 mm | - | 138 W/m² | - |
| 1778193337 | 21.67° C | 62% | 1016.5 hPa | 0 mm | - | 64 W/m² | - |
| 1778193034 | 21.67° C | 60% | 1016.5 hPa | 0 mm | - | 98 W/m² | - |
| 1778192731 | 21.67° C | 61% | 1016.6 hPa | 0 mm | - | 153 W/m² | - |
| 1778192427 | 21.67° C | 60% | 1016.5 hPa | 0 mm | - | 154 W/m² | - |
| 1778192123 | 21.67° C | 61% | 1016.8 hPa | 0 mm | - | 144 W/m² | - |
| 1778191821 | 21.67° C | 60% | 1016.7 hPa | 0 mm | - | 148 W/m² | - |
| 1778191518 | 21.67° C | 59% | 1016.4 hPa | 0 mm | - | 152 W/m² | - |
* Rain latest hour (hover to see other rain measurements)
** Current wind speed in m/s (hover to see current wind gust speed)